Location: La Bastide
(43.1661°N, 1.2755°E)
Time: 14:41:49
(UTC+00:00)

BlueWalker 3 - Pass Details

Date: 24 February 2026
Orbit: 451 x 458 km, 53.2° (Epoch: 6 March)

Event Time Altitude Azimuth Distance (km) Brightness Sun altitude
Exits shadow 05:13:36 - 199° (SSW) 1,716 4.4 -16.4°
Reaches altitude 10° 05:13:56 10° 196° (SSW) 1,591 4.3 -16.3°
Maximum altitude 05:17:06 30° 134° (SE) 849 3.5 -15.7°
Drops below altitude 10° 05:20:17 10° 72° (ENE) 1,597 5.7 -15.2°
Sets 05:22:35 0° 61° (ENE) 2,473 6.6 -14.7°
